Regional Weather Roundup
Issued by NWS Goodland, KS

Home | Current Version | Previous Version | Graphics & Text | Print | Product List | Glossary On
Versions: 1 2 3 4 5 6 7 8 9 10 11 12 13 14 15 16 17 18 19 20 21 22 23 24 25 26 27 28 29 30 31 32 33 34 35 36 37 38 39 40 41 42 43 44 45 46 47 48 49 50
214
ASUS43 KGLD 271108
RWRGLD

GOODLAND FORECAST AREA HOURLY WEATHER ROUNDUP
NATIONAL WEATHER SERVICE GOODLAND KS
500 AM MDT MON MAR 27 2017

...OFFICIAL OBSERVATIONS...

CITY           SKY/WX    TMP DP  RH WIND       PRES   REMARKS
GOODLAND KS    CLEAR     33  32  96 W8        29.92S
HILL CITY KS   CLEAR     33  33 100 SW5       29.96R FOG
IMPERIAL NEB   CLEAR     35  32  88 NW6       29.91S
MCCOOK NEB     CLEAR     33  33 100 CALM      29.91F
AKRON CO       CLEAR     34  31  88 SW12      29.94R
BURLINGTON CO  CLEAR     34  32  92 W9        29.94R
LIMON CO       CLEAR     29  29 100 NW5       29.95F
$$

...UNOFFICIAL OBSERVATIONS...

CITY           SKY/WX    TMP DP  RH WIND       PRES   REMARKS
LENORA KS        N/A     38  32  79 CALM        N/A
NORTON KS      FOG       34  30  86 SW5       29.94R VSB 3/4
SHARON SPRINGS   N/A     34  33  96 CALM        N/A
TRENTON NEB      N/A     33  32  96 CALM        N/A
YUMA CO        FAIR      30  30 100 W8        29.93S
$$




USA.gov is the U.S. government's official web portal to all federal, state and local government web resources and services.